This demonstration page uses our WeatherBlox Daily Observations layout. Learn more.

Left ArrowRight Arrow

39.08367, -84.50855

Hourly Observations for March 7, 2020

Temp ( °F °C ) Dew Point ( °F °C ) Humidity (%) Winds ( mph kmh ) Pressure ( in mb ) Visibility ( mi km ) Precip ( " mm )
12:34 am 00:34 Cloudy 35 1.7 26 -3.3 70 70 WNW 7 11 30.49 1033 10 16 N/A
12:53 am 00:53 Cloudy 35 1.7 26 -3.3 70 70 NW 10 17 30.48 1032 10 16 N/A
1:00 am 01:00 Cloudy 35 1.7 26 -3.3 70 70 NW 8 13 30.49 1033 10 16 N/A
1:53 am 01:53 Cloudy 35 1.7 26 -3.3 70 70 N 7 11 30.49 1033 10 16 N/A
2:53 am 02:53 Cloudy 35 1.7 22 -5.6 59 59 N 6 9 30.50 1033 10 16 N/A
3:53 am 03:53 Cloudy 35 1.7 22 -5.6 59 59 N 5 7 30.50 1033 10 16 N/A
4:53 am 04:53 Cloudy 34 1.1 21 -6.1 59 59 N 8 13 30.51 1033 10 16 N/A
5:53 am 05:53 Cloudy 33 0.6 21 -6.1 61 61 N 8 13 30.54 1034 10 16 N/A
6:53 am 06:53 Cloudy 33 0.6 21 -6.1 61 61 NNE 5 7 30.56 1035 10 16 N/A
7:53 am 07:53 Mostly Sunny 33 0.6 22 -5.6 64 64 ENE 6 9 30.58 1036 10 16 N/A
8:53 am 08:53 Sunny 37 2.8 22 -5.6 54 54 NE 7 11 30.60 1036 10 16 N/A
9:53 am 09:53 Sunny 39 3.9 22 -5.6 50 50 NNE 3 6 30.61 1037 10 16 N/A
10:53 am 10:53 Sunny 39 3.9 21 -6.1 48 48 VRB 5 7 30.61 1037 10 16 N/A
11:53 am 11:53 Sunny 42 5.6 22 -5.6 45 45 W 6 9 30.60 1036 10 16 N/A
12:53 pm 12:53 Sunny 46 7.8 20 -6.7 35 35 VRB 3 6 30.58 1036 10 16 N/A
1:53 pm 13:53 Sunny 47 8.3 20 -6.7 34 34 ENE 5 7 30.55 1034 10 16 N/A
2:53 pm 14:53 Sunny 49 9.4 19 -7.2 31 31 S 6 9 30.52 1034 10 16 N/A
3:53 pm 15:53 Sunny 50 10 18 -7.8 28 28 ENE 3 6 30.51 1033 10 16 N/A
4:53 pm 16:53 Sunny 50 10 17 -8.3 27 27 S 6 9 30.49 1033 10 16 N/A
5:53 pm 17:53 Sunny 49 9.4 18 -7.8 29 29 SE 6 9 30.48 1032 10 16 N/A
6:53 pm 18:53 Clear 43 6.1 22 -5.6 43 43 SE 3 6 30.48 1032 10 16 N/A
7:53 pm 19:53 Clear 39 3.9 27 -2.8 62 62 S 3 6 30.49 1033 10 16 N/A
8:53 pm 20:53 Clear 36 2.2 26 -3.3 67 67 N N/A 30.50 1033 10 16 N/A
9:53 pm 21:53 Clear 33 0.6 25 -3.9 72 72 N N/A 30.51 1033 10 16 N/A
10:53 pm 22:53 Clear 33 0.6 26 -3.3 75 75 N N/A 30.52 1033 10 16 N/A
11:53 pm 23:53 Clear 30 -1.1 26 -3.3 85 85 N N/A 30.51 1033 10 16 N/A

Powered by AerisWeather